Regional Weather Roundup
Issued by NWS Upton, NY

Current Version | Previous Version | Text Only | Print | Product List | Glossary On
Versions: 1 2 3 4 5 6 7 8 9 10 11 12 13 14 15 16 17 18 19 20 21 22 23 24 25 26 27 28 29 30 31 32 33 34 35 36 37 38 39 40 41 42 43 44 45 46 47 48 49 50
000
ASUS41 KOKX 061208
RWROKX

REGIONAL WEATHER ROUNDUP
NATIONAL WEATHER SERVICE NEW YORK NY
700 AM EST TUE DEC 06 2016

NOTE: "FAIR" INDICATES FEW OR NO CLOUDS BELOW 12,000 FEET WITH NO
SIGNIFICANT WEATHER AND/OR OBSTRUCTIONS TO VISIBILITY.

NYZ071-072-176-178-NJZ106-104-061300-
NEW YORK CITY METRO AREA

CITY           SKY/WX    TMP DP  RH WIND       PRES   REMARKS
Central Park   PTCLDY    38  27  64 CALM      30.16R
Wall St Helipt MOSUNNY   41  29  62 VRB3      30.16R
Bronx Bot Gard NOT AVBL
LaGuardia APRT CLOUDY    42  29  59 N3        30.14R
Kennedy INTL   MOCLDY    38  27  64 N6        30.15S WCI  33
Breezy Point     N/A     39 N/A N/A N6          N/A  WCI  35
Newark/Liberty MOCLDY    39  29  67 CALM      30.15R
Teterboro      PTCLDY    33  27  78 CALM      30.14R
$$

NYZ177-179-078>081-061300-
LONG ISLAND NEW YORK

CITY           SKY/WX    TMP DP  RH WIND       PRES   REMARKS
Jones Beach      N/A     37 N/A N/A N6          N/A  WCI  33
Matinecock PT    N/A     41 N/A N/A N6          N/A
Farmingdale    CLEAR     34  28  79 CALM      30.14R
MacArthur/ISP  PTCLDY    28  26  92 NW3       30.12S
Shirley        CLEAR     28  27  96 CALM      30.13S
Westhampton    CLEAR     22  19  89 CALM      30.14S
Southampton    NOT AVBL
Bridgehampton  NOT AVBL
East Hampton     N/A     30  28  93 CALM      30.12S
Montauk          N/A     42  32  67 N10       30.13R
$$

NYZ052-065-067-061300-
HUDSON VALLEY

CITY           SKY/WX    TMP DP  RH WIND       PRES   REMARKS
White Plains   CLEAR     30  25  81 W3        30.11S
Newburgh       CLEAR     25  25 100 CALM      30.13S
Montgomery     CLEAR     24  22  91 SW5       30.12R WCI  18
Poughkeepsie   CLEAR     23  21  92 CALM      30.13R
Albany         PTCLDY    30  27  88 CALM      30.12S
$$

NJZ001-105-106-008-010-013-015-019>022-104-061300-
NEW JERSEY

CITY           SKY/WX    TMP DP  RH WIND       PRES   REMARKS
Newark/Liberty MOCLDY    39  29  67 CALM      30.15R
Teterboro      PTCLDY    33  27  78 CALM      30.14R
Caldwell       PTCLDY    28  25  88 CALM      30.15S
Somerville     CLOUDY    24  21  88 CALM      30.13F
Linden           N/A     32  28  84 CALM      30.15R
Sussex         CLEAR     23  21  92 CALM      30.13R
Andover          N/A     24  21  88 CALM      30.14S
Trenton        PTCLDY    33  27  78 N3        30.13S
Millville      PTCLDY    37  32  82 NE3       30.13R
Atlantic City  CLOUDY    36  30  79 CALM      30.13R
Wrightstown    CLOUDY    33  28  81 N5        30.10S WCI  28
Toms River     MOCLDY    30  28  92 N5        30.13S WCI  25
Belmar         PTCLDY    30  28  92 NW5       30.14S WCI  25
$$

PAZ047>061-062-071-061300-
EASTERN PENNSYLVANIA

CITY           SKY/WX    TMP DP  RH WIND       PRES   REMARKS
Philadelphia   CLOUDY    39  29  67 NE5       30.14R
Allentown      PTCLDY    29  25  85 CALM      30.13S
Scranton       PTCLDY    28  24  85 CALM      30.11S
$$

CTZ002-004>006-009-010-012-RIZ004-006-007-MAZ004-011-015-061300-
SOUTHERN NEW ENGLAND
 IN CT

CITY           SKY/WX    TMP DP  RH WIND       PRES   REMARKS
Bradley INTL   PTCLDY    29  26  89 W5        30.13R WCI  24
Hartford       CLEAR     28  26  92 N5        30.13R WCI  23
Danbury        CLEAR     24  22  91 SE3       30.13R
Wtrbury/Oxford CLEAR     28  21  74 CALM      30.11R
Bridgeport     NOT AVBL
Meriden        CLEAR     27  23  85 NW3       30.12S
New Haven      PTCLDY    27  24  89 CALM      30.13R
Chester          N/A     32  27  80 CALM      30.11R
Groton         CLEAR     32  29  88 N3        30.12R
Wilimantic     CLEAR     24  21  88 CALM      30.14R

 IN RI

CITY           SKY/WX    TMP DP  RH WIND       PRES   REMARKS
Providence     PTCLDY    30  26  85 CALM      30.13R
Block Island   CLEAR     40  32  73 N10       30.12R WCI  33
Westerly       CLEAR     29  24  82 CALM      30.13R
 IN MA

CITY           SKY/WX    TMP DP  RH WIND       PRES   REMARKS
Boston         PTCLDY    35  29  78 NW8       30.12S WCI  29
Worcester      CLEAR     28  25  88 NW5       30.08S WCI  23
Westfield      CLEAR     25  24  96 CALM      30.12R
Provincetown   PTCLDY    40  30  67 N20G28    30.09S WCI  30
Nantucket      CLEAR     39  31  72 NW17G24   30.09R WCI  30
$$

ANZ330-335-338-340-345-350-353-355-061300-
COASTAL MARINE OBSERVATIONS


STATION/POSITION TIME  SKY/WX   TEMP    WIND        PRES    VSBY  WAVE
                                AIR SEA DIR/SP/G                  HT/PER
                 (UTC)          (F)     (DEG/KT/KT) (MB)    (MI)  (FT/S)
NY HARB ENTRANCE 1050            45 53  350/ 10/ 12 1020.3          2/ 9
20 S FIRE ISLAND 1050            45 54  360/ 10/ 14 1020.1          3/ 9
GREAT SOUTH BAY  NOT AVBL
23 SSW MONTAUK P 1050            45 53  330/ 19/ 23 1019.7          3/ 4
15 E BARNEGAT LI 1130               53                N/A           3/ 9
HUDSON CANYON    1050            49 58              1019.0          5/ 6
KINGS POINT      1130            40 47              1020.4
EXECUTION ROCKS  1145            40     360/  6/  8   N/A
CENTRAL LI SOUND 1130            42 50  320/  6/  8   N/A           1/ 4
EASTERN LI SOUND NOT AVBL
ROBBINS REEF     1130            40     350/  5/  5 1020.7
$$


>>>>>>>>>>>>>>>>>>>>>>>>>>>> KEY <<<<<<<<<<<<<<<<<<<<<<<<<<<
>                                                          <
>     SKY/WX - Sky Condition/Present Weather               <
>     TMP    - Temperature in Fahrenheit                   <
>     DP     - Dew Point in Fahrenheit                     <
>     RH     - Relative Humidity in Percent                <
>     WIND   - Direction (from) and Speed in MPH           <
>     PRES   - Mean Sea Level Pressure (inches of Hg)      <
>     WCI    - Wind Chill Index                            <
>     VSB    - VISIBILITY IN MILES                         <
>     HX     - HEAT INDEX                                  <
>     TC     - TEMPERATURE IN CELSIUS                      <
>     VRB    - VARIABLE WIND DIRECTION                     <
>                                                          <
>>>>>>>>>>>>>>>>>>>>>>>>>>>> KEY <<<<<<<<<<<<<<<<<<<<<<<<<<<



USA.gov is the U.S. government's official web portal to all federal, state and local government web resources and services.